GW2881 Weather Reports


time (UTC)temp
F
wind
direction
speed
knots
gust
knots
rain 1hr
in
rain 24hr
in
rain mn
in
humidity
%
barometer
mb
20260506200106 31 360 2.6 5.2 0.00 0.03 0.03 96 1010.9
20260506194550 31 360 1.7 3.5 0.00 0.03 0.03 95 1010.8
20260506193054 31 360 1.7 2.6 0.00 0.03 0.03 94 1010.8
20260506191608 31 360 0.9 3.5 0.00 0.03 0.03 93 1010.7
20260506190040 31 360 3.5 5.2 0.00 0.03 0.03 92 1010.6
20260506184553 31 360 2.6 4.3 0.00 0.03 0.03 93 1010.6
20260506183053 32 360 2.6 3.5 0.00 0.03 0.03 94 1010.5
20260506181556 32 360 0.0 0.0 0.00 0.03 0.03 95 1010.5
20260506180104 32 360 0.0 0.0 0.00 0.03 0.03 96 1010.5
20260506174554 32 360 0.0 0.0 0.00 0.03 0.03 97 1010.5
20260506173119 32 360 0.0 0.9 0.00 0.03 0.03 97 1010.6
20260506171544 31 360 1.7 3.5 0.01 0.03 0.03 98 1010.5
20260506170002 30 360 2.6 4.3 0.01 0.03 0.03 99 1010.5
20260506164552 30 360 1.7 4.3 0.01 0.03 0.03 99 1010.6
20260506163058 30 360 3.5 4.3 0.01 0.03 0.03 99 1010.6
20260506161601 30 360 2.6 4.3 0.00 0.02 0.02 99 1010.6
20260506154549 30 360 3.5 5.2 0.00 0.02 0.02 99 1010.5
20260506153048 30 360 3.5 6.1 0.00 0.02 0.02 99 1010.4
20260506151501 31 360 4.3 7.0 0.00 0.02 0.02 98 1010.2
20260506144606 31 360 5.2 7.0 0.00 0.02 0.02 97 1010.0
20260506143058 31 360 4.3 7.0 0.00 0.02 0.02 95 1009.9
20260506141546 32 360 6.1 8.7 0.00 0.02 0.02 91 1009.8
20260506140048 32 360 1.7 4.3 0.00 0.02 0.02 92 1009.7
20260506134603 32 360 4.3 7.8 0.00 0.02 0.02 91 1009.7
20260506133100 32 360 4.3 9.6 0.00 0.02 0.02 91 1009.6
20260506131543 32 360 7.8 11.3 0.00 0.02 0.02 92 1009.5
20260506130053 33 360 2.6 4.3 0.00 0.02 0.02 95 1009.4
20260506124502 32 360 0.9 3.5 0.00 0.02 0.02 96 1009.3
20260506123055 32 360 1.7 4.3 0.01 0.02 0.02 94 1009.2
20260506121542 32 360 0.0 5.2 0.01 0.02 0.02 98 1009.2
20260506120049 32 360 0.9 2.6 0.01 0.02 0.02 98 1009.2
20260506114559 31 360 0.0 2.6 0.01 0.03 0.02 98 1009.1
20260506113057 31 360 0.9 7.0 0.00 0.02 0.02 97 1008.9
20260506111547 31 360 6.1 8.7 0.00 0.02 0.02 93 1008.7
20260506110051 32 360 0.0 3.5 0.00 0.02 0.02 94 1008.6
20260506104601 32 360 1.7 3.5 0.01 0.02 0.02 94 1008.4
20260506103043 32 360 2.6 5.2 0.01 0.02 0.02 95 1008.3
20260506101553 33 360 0.0 1.7 0.01 0.02 0.02 96 1008.3
20260506100057 32 360 0.0 0.0 0.01 0.02 0.02 96 1008.1
20260506094501 31 360 0.0 1.7 0.00 0.02 0.01 97 1008.1
20260506093002 30 360 1.7 4.3 0.00 0.02 0.01 98 1008.1
20260506091552 30 360 3.5 4.3 0.00 0.02 0.01 99 1007.9
20260506090050 30 360 3.5 7.8 0.00 0.02 0.01 98 1007.8
20260506084601 31 360 6.1 8.7 0.00 0.02 0.01 98 1007.7
20260506083050 32 360 1.7 7.8 0.00 0.02 0.01 97 1007.6
20260506081555 31 360 3.5 7.0 0.00 0.02 0.01 98 1007.1
20260506080106 31 360 0.0 1.7 0.00 0.02 0.01 98 1007.0
20260506073104 31 360 0.9 4.3 0.00 0.02 0.01 98 1006.8
20260506071600 31 360 0.0 3.5 0.00 0.02 0.01 98 1006.7
20260506061545 31 360 0.0 1.7 0.00 0.02 0.01 99 1006.3
20260506044551 30 360 1.7 2.6 0.00 0.01 0.00 99 1005.7
20260506043052 29 360 1.7 2.6 0.00 0.01 0.00 99 1005.6
20260506041559 30 360 0.9 1.7 0.00 0.01 0.00 99 1005.6
20260506040042 28 360 1.7 3.5 0.00 0.01 0.00 99 1005.4
20260506034557 29 360 0.0 2.6 0.00 0.01 0.00 99 1005.3
20260506033114 29 360 0.0 0.9 0.00 0.01 0.00 99 1005.2
20260506031546 29 360 0.9 2.6 0.00 0.01 0.00 99 1005.1
20260506030059 29 360 0.9 2.6 0.00 0.01 0.00 99 1005.0
20260506024615 29 360 1.7 3.5 0.00 0.01 0.00 100 1004.9
20260506023106 30 360 0.9 2.6 0.00 0.01 0.00 100 1004.8
20260506021556 30 360 0.9 3.5 0.00 0.01 0.00 100 1004.7
20260506020048 30 360 1.7 2.6 0.00 0.01 0.00 100 1004.6
20260506014543 30 360 0.0 1.7 0.00 0.01 0.00 100 1004.5
20260506013047 30 360 0.0 5.2 0.00 0.01 0.00 100 1004.4
20260506011621 30 360 1.7 4.3 0.00 0.01 0.00 100 1004.3
20260506010120 30 360 2.6 5.2 0.00 0.01 0.00 100 1004.2
20260506004549 30 360 4.3 7.0 0.00 0.01 0.00 100 1004.2
20260506003049 30 360 3.5 6.1 0.00 0.01 0.00 99 1004.1
20260506001601 30 360 4.3 6.1 0.00 0.01 0.00 99 1004.1
20260506000051 30 360 4.3 7.0 0.00 0.01 0.00 99 1004.0
20260505234553 30 360 3.5 6.1 0.00 0.01 0.00 100 1003.9
20260505233054 30 360 2.6 4.3 0.00 0.01 0.00 100 1003.8
20260505231549 30 360 2.6 4.3 0.00 0.01 0.00 99 1003.8
20260505230052 30 360 2.6 5.2 0.00 0.01 0.00 99 1003.7
20260505224558 30 360 3.5 5.2 0.00 0.01 0.00 100 1003.7
20260505223042 30 360 4.3 6.1 0.00 0.01 0.00 100 1003.7
20260505221603 30 360 4.3 6.1 0.00 0.01 0.00 100 1003.6
20260505220106 30 360 5.2 7.0 0.00 0.01 0.00 100 1003.5
20260505214551 30 360 3.5 7.0 0.00 0.01 0.01 99 1003.5
20260505213045 30 360 4.3 7.0 0.00 0.01 0.01 99 1003.5
20260505211555 30 360 5.2 7.8 0.00 0.01 0.01 100 1003.5
20260505210057 30 360 4.3 8.7 0.00 0.01 0.01 99 1003.4
20260505204603 30 360 3.5 5.2 0.00 0.01 0.01 99 1003.3
20260505203106 30 360 6.1 8.7 0.00 0.01 0.01 99 1003.2
20260505201547 30 360 6.1 10.4 0.00 0.01 0.01 100 1003.2